Content
SEND FEEDBACK

Daily
Averages
Monthly
Summary
United States of America

ALPINE MEADOWS, CALIFORNIA


Home > North America > United States > California
Elevation: 1900 meters     Latitude: 39 12N     Longitude: 120 14W

WEATHER
 
SELECT A DAY
Number of Records: 282,692;   Date Range: 1/1/95 - 9/18/14
 
SHARE

PRINT THIS DATA

[ ← Previous Day ]
WEATHER ALMANAC - 25 SEPTEMBER, 2013
[ Next Day → ]
[ °F ]   °C
Weather ElementAverageHighLow
Temperature3.3 °C10 °C (2:45 pm)0 °C (6:50 am)
Dewpoint-1.4 °C0 °C (5:15 am)-7 °C (2:45 pm)
Humidity75.3 %100 % (7:55 pm)30 % (2:45 pm)
Barometer1012.5 hPa1013.2 hPa (12:55 am)1011.2 hPa (3:45 pm)
Wind Speed9 km/h24.1 km/h (2:55 am)
Wind Gust38.9 km/h (12:55 am)
Weather ElementAverage
Visibility15.1 km
Wind DirectionSSE (158.7 °)

Weather ElementTotal
Precipitation6.1 mm
Heating Degree Days13.3 (Base 18.3)
Averaged from 46 records on 25 September, 2013
WEATHER CONDITIONS BREAKOUT
WIND DIRECTION BREAKOUT
WEATHER BY HOUR - 25 SEPTEMBER, 2013
[ °F ]   °C
Local TimeTemperatureDewpointHumidityBarometerVisibilityWind DirectionWind SpeedGust SpeedPrecipitationEventsConditions
12:55 AM7 °C-2 °C53 %1013.2 hPa16.1 kmWSW (250°)13 km/h38.9 km/hPartly Cloudy
1:15 AM7 °C-1 °C57 %1013.2 hPa16.1 kmWSW (250°)14.8 km/h27.8 km/hMostly Cloudy
1:35 AM7 °C-1 °C57 %1012.9 hPa16.1 kmWSW (250°)16.7 km/h27.8 km/hMostly Cloudy
1:55 AM6 °C-1 °C61 %1012.9 hPa16.1 kmWSW (240°)22.2 km/hScattered Clouds
2:35 AM5 °C-2 °C61 %1012.5 hPa16.1 kmWSW (250°)18.5 km/hClear
2:55 AM5 °C-1 °C65 %1012.2 hPa12.9 kmWSW (240°)24.1 km/hRainLight Rain
3:15 AM4 °C-1 °C70 %1012.2 hPa16.1 kmSW (230°)16.7 km/hClear
3:35 AM4 °C-2 °C65 %1012.2 hPa16.1 kmWest (260°)5.6 km/hClear
3:55 AM4 °C-2 °C65 %1012.2 hPa16.1 kmESE (120°)7.4 km/hPartly Cloudy
4:15 AM4 °C-1 °C70 %1011.9 hPa16.1 kmWSW (250°)5.6 km/hMostly Cloudy
4:35 AM4 °C-1 °C70 %1011.9 hPa16.1 kmSSW (210°)7.4 km/hMostly Cloudy
4:55 AM3 °C-2 °C70 %1011.9 hPa16.1 kmWSW (250°)5.6 km/hScattered Clouds
5:15 AM4 °C0 °C75 %1012.2 hPa16.1 kmWest (270°)22.2 km/h35.2 km/hMostly Cloudy
5:35 AM4 °C0 °C75 %1012.2 hPa16.1 kmWest (280°)9.3 km/hOvercast
5:55 AM3 °C0 °C81 %1012.2 hPa16.1 kmWNW (290°)9.3 km/hScattered Clouds
6:15 AM2 °C0 °C87 %1012.2 hPa16.1 kmCalmPartly Cloudy
6:35 AM2 °C0 °C87 %1012.2 hPa16.1 kmWest (260°)9.3 km/hPartly Cloudy
6:50 AM0 °C-2 °C87 %1012.5 hPa16.1 kmCalmMostly Cloudy
7:55 AM3 °C-1 °C75 %1012.9 hPa16.1 kmCalmScattered Clouds
8:55 AM6 °C-2 °C57 %1012.9 hPa16.1 kmNW (310°)7.4 km/hMostly Cloudy
10:55 AM8 °C-5 °C40 %1012.9 hPa16.1 kmWest (280°)20.4 km/h29.6 km/hMostly Cloudy
11:55 AM8 °C-6 °C37 %1012.5 hPa16.1 kmWNW (290°)13 km/hMostly Cloudy
12:45 PM9 °C-6 °C34 %1012.2 hPa16.1 kmWNW (290°)16.7 km/h29.6 km/hMostly Cloudy
1:50 PM9 °C-6 °C34 %1011.9 hPa16.1 kmWest (270°)24.1 km/h33.3 km/hMostly Cloudy
2:45 PM10 °C-7 °C30 %1011.5 hPa16.1 kmWSW (250°)24.1 km/h35.2 km/hMostly Cloudy
3:45 PM10 °C-7 °C30 %1011.2 hPa16.1 kmSW (230°)20.4 km/h29.6 km/hMostly Cloudy
5:45 PM2 °C0 °C87 %1012.9 hPa14.5 kmSE (130°)5.6 km/hMostly Cloudy
5:55 PM2 °C0 °C87 %1012.9 hPa14.5 kmENE (70°)5.6 km/hSnowLight Snow
6:15 PM2 °C-1 °C81 %1012.5 hPa16.1 kmNNE (30°)7.4 km/hRainLight Rain
6:35 PM2 °C-1 °C81 %1012.5 hPa16.1 kmENE (60°)5.6 km/hMostly Cloudy
6:55 PM2 °C-1 °C81 %1012.5 hPa16.1 kmCalmScattered Clouds
7:15 PM2 °C0 °C87 %1012.2 hPa16.1 kmCalmOvercast
7:35 PM1 °C0 °C93 %1012.5 hPa4 kmNorth0.25 mmOvercast
7:55 PM0 °C0 °C100 %1012.9 hPa1.6 kmWNW (300°)7.4 km/h0.25 mmSnowLight Snow
8:15 PM0 °C0 °C100 %1012.9 hPa1.3 kmNE (50°)18.5 km/h27.8 km/h0.76 mmSnowLight Snow
8:35 PM0 °C-1 °C93 %1013.2 hPa16.1 kmCalm1.52 mmSnowLight Snow
8:55 PM0 °C0 °C100 %1013.2 hPa16.1 kmCalm2.03 mmMostly Cloudy
9:15 PM0 °C0 °C100 %1013.2 hPa16.1 kmSW (220°)5.6 km/h0.25 mmOvercast
9:35 PM0 °C0 °C100 %1013.2 hPa16.1 kmCalm0.51 mmOvercast
9:55 PM0 °C-1 °C93 %1013.2 hPa16.1 kmNorth (360°)5.6 km/h0.51 mmMostly Cloudy
10:15 PM0 °C0 °C100 %1013.2 hPa16.1 kmESE (120°)5.6 km/hMostly Cloudy
10:35 PM0 °C0 °C100 %1012.9 hPa16.1 kmCalmMostly Cloudy
10:55 PM0 °C0 °C100 %1013.2 hPa16.1 kmCalmOvercast
11:15 PM0 °C0 °C100 %1013.2 hPa16.1 kmCalmOvercast
11:35 PM0 °C-1 °C93 %1013.2 hPa16.1 kmCalmOvercast
11:55 PM0 °C-1 °C93 %1013.2 hPa16.1 kmSE (140°)7.4 km/hOvercast
Hourly data recorded from KTRK, located 0 kilometers away from Alpine Meadows, California







STORIES FROM OUR PARTNERS